Terminal Aerodrome Forecast
Issued by NWS

Home | Current Version | Previous Version | Text Only | Print | Product List | Glossary On
Versions: 1 2 3 4 5 6 7 8 9 10 11 12 13 14 15 16 17 18 19 20 21 22 23 24 25 26 27 28 29 30 31 32 33 34 35 36 37 38 39 40 41 42 43 44 45 46 47 48 49 50
000
FTUS44 KBMX 271739
TAFASN
TAF
KASN 271739Z 2718/2818 08006KT P6SM SCT025 BKN035
     FM272100 18005KT P6SM -SHRA VCTS SCT025 BKN035CB
      TEMPO 2801/2804 2SM TSRA SCT015 BKN025CB
     FM280600 VRB03KT 4SM BR BKN050
     FM281400 VRB03KT P6SM BKN250=

USA.gov is the U.S. government's official web portal to all federal, state and local government web resources and services.